Les Forges de la Foret d'Anlier
Category
VE1
Habay-la-Neuve, 17/06/2006, BEL
Delhalle - 19km - Classement scratch
19km 
PlaceNrNameAgeNATLeagueTeamRealTimeTkmMoy.ScrPtsCity
1.2266FAVEAUX Thierry43BELARCHJOGGING PLUS1:07:111:07:123:33 16.9651100LEIGNON
2.2416DHAEZE Elie48BELULA1:08:541:08:553:38 16.5461073ARLON
3.2461LICCIARDI Lillo45BELSERUNNER1:09:281:09:323:40 16.4071064
4.2446THERER Benedict41BELDAMP1:09:471:09:493:41 16.3381059LÉGLISE
5.2015HENDRICKX Jan47BELAT841:11:051:11:063:45 16.03111039HOOGSTRATEN
6.1453HENIN Didier48BELESM1:11:431:11:443:47 15.89121030CHATELET
7.2585JACOB Thierry41BELAC DAMPICOURT1:11:531:11:553:48 15.85131026
8.6HUYGHE Vincent43BELMOHATPVERT1:12:251:12:263:49 15.74171017JEMAPPES
9.11DUBOIS Michel49BELHERV1:12:551:12:573:51 15.63181009WELKENRAEDT
10.411RODRIGUEZ Luis46BELCEPAL1:13:481:13:503:54 15.4420996TUBIZE
11.1039SNAPS Jean-Francois45BELCABWNAC1:13:581:13:593:54 15.4121993NETHEN
12.1185DARTE Eric42BELSMAC1:14:361:14:373:56 15.2824984LEUZE-EGHEZEE
13.1540VANDEVELDE Francis49BELFCHA1:16:321:16:374:02 14.8830954LINTER
14.541FILLEE Eric46BELUACDILAVILE1:16:471:16:484:03 14.8431951CHATELINEAU
15.2496BOLLEN Pascal44BELSERSERUNNER1:16:451:16:534:03 14.8332951NEUPRE
16.1172DIEPENDAELE Rudi43BELACLOJC MARIEMO1:17:051:17:094:04 14.7834945LA HESTRE
17.1631CADO Paul46BELFLEU1:17:291:17:354:05 14.6935939LIGNY
18.2366SOUCHOU Jean-François43FRALSC1:17:521:17:544:06 14.6337933
19.1296COLLOT Joseph42BELANTILOB1:18:461:18:494:09 14.4640920GREZ-DOICEAU
20.2273GERST Alain47FRALSC1:19:251:19:284:11 14.3543910
21.2227CARAY Yves46FRAACO.BLENOD1:19:301:19:354:12 14.3244909
22.356CARETTE Alain40BELJCL1:19:391:19:414:12 14.3145906TEMPLEUVE
23.2060DIEDERICH Patrick42LUXCSA1:19:281:19:424:12 14.3046908HOBSCHEID
24.2243DDIER Dominique45BEL1:20:261:20:354:15 14.1551893
25.2400MATHIEU Joel42BELDAMP1:20:391:20:424:15 14.1352890BASTOGNE
26.1171HANUS Michel48BELUACBOUFFIOL1:20:391:20:444:15 14.1253890ROSELIES
27.1109HANOTIAU Jean-Marc44BELCEPAL1:21:351:21:394:18 13.9656876BRUXELLES
28.1278LORANT Manu44BEL1:21:371:21:554:19 13.9259875MALONNE
29.1552THIELTGEN Eric47BELHRC1:21:571:22:034:20 13.8961869NOBRESSART
30.1388LECOQ Marc45BELUAC1:22:381:22:434:22 13.7866858
31.2257DIONNET Dominique43FRALSC1:23:271:23:274:24 13.6671846
32.2252DEMENTHON Michel47BEL1:23:401:23:434:25 13.6273842
33.774FOHAL J.Luc41BELETCHIEVR1:23:541:24:204:27 13.5278837ATH
34.781OLIVIER Bob47BELACORE1:24:321:24:374:28 13.4780828WAREMME
35.1390PAULUS Philippe45BELESM1:24:471:24:574:29 13.4283824MONT-SUR-MARCHIENNE
36.1016HENRY Andre46BELTENDONS1:25:101:25:194:30 13.3685818LA HULPE
37.689KRINGS Viktor46BELTVK HBG1:25:321:25:354:31 13.3289812BÜTGENBACH
38.2268FIRRE Gérard41BEL1:25:281:25:364:31 13.3290812MESSANCY
39.2441RISCHETTE Gilbert48BELCAPA1:25:331:25:474:31 13.2992811
40.2352SALORT Patrick43FRALSC1:26:011:26:034:32 13.2595804
41.2550MARTIN Thierry41BELACD1:26:071:26:254:33 13.1997801NEUFCHÂTEAU
42.193DI BIASE Renato41BELBOUFFIOL1:26:381:26:444:34 13.14100794COUILLET
43.485ROSILLON Dominique49BELARCH1:26:521:27:004:35 13.10104789SOREE
44.2520DEOM Jean-Pierre49BEL1:26:501:27:114:36 13.08106789BERTRIX
45.2381WEILAND Patrick45FRA1:27:061:27:134:36 13.07107785HAYANGE
46.2285HEYDEN Christian42BEL-1:27:081:27:154:36 13.07108784ROCHEFORT
47.106DUPONT Roger49BELCAFSPORPLUS1:27:071:27:164:36 13.06109784LA ROCHE-EN -ARDENNES
DNF: did not finish; DSQ: disqualified; Speed in km/h
30/11/2020 - 08:52 - 224 Entries
ChronoRace - Electronic Timing SPRL
http://www.chronorace.be

Page 1 / 5  
Les Forges de la Foret d'Anlier
Category
VE1
Habay-la-Neuve, 17/06/2006, BEL
Delhalle - 19km - Classement scratch
19km 
PlaceNrNameAgeNATLeagueTeamRealTimeTkmMoy.ScrPtsCity
48.584UBIETA Didier45BELAMAY1:27:211:27:304:37 13.03111780VINALMONT
49.753FAUCON Michel42BELRCNAMUR1:27:341:27:394:37 13.01115776NAMUR
50.2271GAZENGEL Didier48FRA1:27:361:27:444:38 12.99116775LAIFOUR
51.240FONTAINE Bernard43BELIXELKURISTO1:27:521:27:564:38 12.96120770BRUXELLES
52.2596FONTAINE Philippe42BELSMAC1:28:021:28:094:39 12.93122767NAMUR
53.2283HERVY Alain47FRALSC1:28:021:28:124:39 12.93123767
54.2391KLEIN Pierre42BEL1:28:131:28:164:39 12.92124764
55.2053VOLON Patrick47BEL1:28:211:28:444:41 12.85129760FLEMALLE
56.1136GAUTIER Jacques44BEL1:28:421:28:494:41 12.84132754MEUX
57.2008DEFLANDRE Jean Marie43BELOLNE1:28:481:29:064:42 12.79134752SOUMAGNE
58.2277VELVELOVICH Francis45FRAACO.BLENOD1:29:101:29:154:42 12.77137747
59.2261DOUILLOT Dominique46FRAACO.BLENOD1:29:111:29:154:42 12.77138746
60.992LETHE Vincent46BELRONVAU1:29:371:29:514:44 12.69146737TOURINNES-SAINT-LAMBERT
61.41RADERMECKER Alain48BELBOUFFIOL1:29:481:29:544:44 12.68148734GOUGNIES
62.1559CONRARD Edgard41BEL1:29:231:30:084:45 12.65150738HABAY LA NEUVE
63.360WAROUX Patrick43BELETCHIEVR1:29:301:30:124:45 12.64151736CASTEAU
64.693CHAUVIER J.Pierre46BELWALCOURT1:29:571:30:164:46 12.63153730YVES-GOMEZEE
65.2253MEININGER Ulrich46DEU1:31:111:31:384:50 12.44163711KOLN
66.901RENAUX Jean-Louis46BELHRC1:31:451:31:574:51 12.40165704HABAY-LA-NEUVE
67.382SERON Benoit45BEL1:31:481:32:014:51 12.39166703MALONNE
68.2458DELVAUX Philippe43BELSMAC1:32:041:32:174:52 12.35170698
69.2412ARIES Michel49FRAAJCLAJCL SAULNES1:31:581:32:184:52 12.35171699SAULNES
70.2280GRESSE Daniel41BEL1:32:071:32:214:52 12.34172697BASTOGNE
71.1415LOUIS Vincent40BELARCH1:32:021:32:244:52 12.34174697CINEY
72.763RYCKEBOER Marc40BELRCB1:32:251:32:414:53 12.30177691LA HULPE
73.2591MERVEILLE Marc47BEL1:32:121:32:564:54 12.27181692
74.1563PAULET Claude49BELFLEU1:33:101:33:264:56 12.20187678MARBAIS
75.2570ANDRIN Jean Luc44FRAWMEN1:32:521:33:364:56 12.18189680WOLKRANGE
76.2039VERMEIR Gustaaf43BELAVZK1:33:341:33:434:56 12.16190672
77.2406BORDIN Philippe43BELBRIEY MARATHON1:32:551:33:434:56 12.16191679
78.2535FRANÇOIS Patrice48BEL1:32:581:33:464:57 12.16192678ARLON
79.215STAPELLE Eric43BELSMAC1:33:461:33:524:57 12.14193668BOIS DE VILLERS
80.2334OCTAVE José42BEL1:33:471:33:554:57 12.14194668MABOMPRE
81.1643SMETS Johan40BEL1:33:541:34:054:58 12.12197665LUBBEEK
82.853GARBAR Didier46BEL1:33:531:34:094:58 12.11198665CLERMONT
83.2365SOMMAVILLA Yves49FRALSC1:34:101:34:144:58 12.10200660
84.617BAIJOT Bernard45BELJCCS1:33:511:34:154:58 12.10203663HOUDREMONT
85.224BARBIER Yves46BELUSBW1:34:121:34:234:59 12.08205658BRAINE-L'ALLEUD
86.2344PONLOT Jean-Jacques44BEL1:34:401:34:495:00 12.02207652BELLEFONTAINE
87.1963BISIAU Philippe45FRA1:34:251:34:515:00 12.02210653LILLE
88.2033PERLIC Patrick45LUX1:35:061:35:155:01 11.97215643DUDELANGE
89.812BATISTIC Patrick42BELRONVAU1:35:171:35:325:02 11.93219639FARCIENNES
90.2308LEPINOIS Philippe45BEL1:35:561:36:125:04 11.85229628BASTOGNE
91.57LUCCHESE Serge47BELAMAY1:36:171:36:215:05 11.83233622AMAY
92.735JORDANT Benoit44BELARCHJOGGPLUS1:36:261:36:485:06 11.78239618YVOIR
93.2456RONGVAUX Bernard46BELHRCHRC1:36:421:36:585:07 11.76241614VIRTON
94.2263DUVAL Yves44FRALSC1:37:071:37:105:07 11.73245608
DNF: did not finish; DSQ: disqualified; Speed in km/h
30/11/2020 - 08:52 - 224 Entries
ChronoRace - Electronic Timing SPRL
http://www.chronorace.be

Page 2 / 5  
Les Forges de la Foret d'Anlier
Category
VE1
Habay-la-Neuve, 17/06/2006, BEL
Delhalle - 19km - Classement scratch
19km 
PlaceNrNameAgeNATLeagueTeamRealTimeTkmMoy.ScrPtsCity
95.2004BLANCHET Dominique44BEL1:36:591:37:115:07 11.73247608HABAY-LA-NEUVE
96.1551SAUCIN Luc45BELUACRRTC1:36:471:37:155:08 11.72248610CHATELET
97.888RUBINO Michel46BELUACRRTC1:36:481:37:185:08 11.72249609CHATELET
98.1736LEFEVERE Alain47BELACA1:37:141:37:215:08 11.71250604SINT TRUIDEN
99.2064PITZ Roger42BELLAC1:37:211:37:415:09 11.67258599
100.324VANDEWALLE Marc49BELJCOOSTER1:37:361:37:465:09 11.66260595SCHELDEWINDEKE
101.2051CLAUDY Thierry44BEL1:36:531:37:515:09 11.65262602MUSSON
102.526NORMAND Daniel45BELJCCS1:37:331:38:295:11 11.58270591RIENNE
103.2251DELVAUX Thierry44BEL1:38:301:38:385:12 11.56274579HANNUT
104.2542CRASSET Philippe42BELJCCS1:38:311:38:425:12 11.55277577
105.2405DEFOIN Hughes42BEL1:38:351:38:535:13 11.53282574
106.2511STREPENNE Andre41BEL1:39:101:39:225:14 11.47287566VAUX-SUR-SÛRE
107.1590POPPE Christian47BEL1:39:201:39:395:15 11.44290563MARCHE-EN-FAMENNE
108.2474PONCIN Charles49NLD1:39:051:39:405:15 11.44292565
109.274LEFEBVRE Andre40FRA1:38:551:39:415:15 11.44293566SAPOGNE SUR MARCHE
110.1260VAN BERGEN Alain45BELFLEUJOGGPLUS1:31:411:40:295:18 11.35299641AISEAU
111.1217LAMBOTTE Eric42BEL1:39:561:40:345:18 11.34301552RULLES
112.2367STOFFEL Luc41LUX1:40:221:40:455:19 11.32304545BOULAIDE
113.2338PIERRE Marc43BEL1:40:491:41:105:20 11.27314536EMINES
114.1907BYA Dany44BELSERSERUNNER1:40:341:41:295:21 11.23321535SERAING
115.2567LIVEMONT Emmanuel45FRARRTC1:40:391:41:435:22 11.21325533
116.2562ANTOINE Philippe47BEL1:41:231:41:455:22 11.20326525
117.2295KENLER Philippe49BELCOURIR PLAISIR OLNE1:41:441:41:545:22 11.19331519ROMSÉE
118.225OLIVIER Pierre48BEL1:41:241:42:045:23 11.17335520HANEFFE
119.1864DE ROECK Patrick44BELSERSERUNNER1:41:361:42:125:23 11.15338517HERSTAL
120.790FOLIE Yvon49BEL1:42:091:42:465:25 11.09348507AWENNE (SAINT-HUBERT)
121.2206BARNABA Fabrice41BEL1:42:311:42:465:25 11.09349502AUTELHAUT
122.425MOREAU Jean-Louis46BELJCCS1:42:301:43:065:26 11.06351502TOERNICH
123.2536FELIX Paul41FRA1:42:531:43:135:26 11.04352497
124.2018HIBO Pierre47BEL1:42:501:43:165:27 11.04353497SAINT-SERVAIS
125.3000ANDRE Alain46BELSERRUNNERS1:42:421:43:165:27 11.04354498SERAING
126.2380VEVELOVICH Francis45FRA1:42:591:43:215:27 11.03355495
127.377SPRIMONT Olivier43BEL1:43:191:43:465:28 10.99358490UCCLE
128.643MASSART Patrick48BELHRC1:43:391:44:055:29 10.95361485ARLON
129.2062LAFFINEUR Jean-Michel45BELFORTIS1:44:181:44:415:31 10.89368476WÉPION
130.2376VANDERMISSEN Frederic46BEL1:44:291:44:545:32 10.87370473
131.2370TAMBOUR Laurent47FRA1:44:531:45:125:33 10.84375467FLIZE
132.305DEVOS Didier40BELCPMV1:45:091:45:305:34 10.81376464NALINNES
133.1480BOUCHET Fabrice47BELHRC1:44:441:45:335:34 10.80377467IZEL
134.2583DELPERDANGE Baudouin40BEL1:44:531:45:365:34 10.80379465BASTOGNE
135.2327MICHAUD Serge46FRALSC1:45:281:45:375:34 10.79380459
136.2304LEJEUNE Philippe44BEL1:45:281:45:515:35 10.77383457GEMBLOUX
137.1878ROMAIN Bernard49BELJAMES1:45:441:45:595:35 10.76384454CHASTRE
138.1114DEBREUX Didier42BEL1:45:101:46:005:35 10.75385459MARBEHAN
139.1641DEFAWE Yves42BEL1:45:371:46:115:36 10.74388453FLEMALLE
140.2028MATAGNE Olivier43BELSERSERUNNER1:45:351:46:125:36 10.73389453HEURE-LE-ROMAIN
141.2025LUTGEN Jean-Marc46BEL1:46:091:46:185:36 10.72390447BASTOGNE
DNF: did not finish; DSQ: disqualified; Speed in km/h
30/11/2020 - 08:52 - 224 Entries
ChronoRace - Electronic Timing SPRL
http://www.chronorace.be

Page 3 / 5  
Les Forges de la Foret d'Anlier
Category
VE1
Habay-la-Neuve, 17/06/2006, BEL
Delhalle - 19km - Classement scratch
19km 
PlaceNrNameAgeNATLeagueTeamRealTimeTkmMoy.ScrPtsCity
142.2306LEMAIRE Guy47BEL1:45:381:46:255:37 10.71394450MARBEHAN
143.2074DE BRABANTER Eric43BEL1:46:171:47:045:39 10.65400441
144.2233COBBAERT Mario41BELTOVENAARS1:46:451:47:145:39 10.63403435DENDERLEEUW
145.208BOUTEFEU Jacques46BELESMRRTC1:47:061:47:375:40 10.59412428MONTIGNIES-SUR-SAMBRE
146.2022LACROIX Luc40LUX1:46:571:47:375:40 10.59413428BECKERICH
147.2483LECOMTE Jean-Claude43BEL1:46:561:47:445:41 10.58417427
148.2235COLLIN Alexandre43BEL1:47:151:47:505:41 10.57418423
149.1006PIRSON Georges43BELHRC1:47:351:48:055:42 10.55421419LIBRAMONT
150.2554TIBERGHIEN Regis41BEL1:47:491:48:155:42 10.53424415ARLON
151.1356GODEFROID Gaetan46BELARCH1:47:521:48:215:43 10.52425414CINEY-LEIGNON
152.2385KHALDI Mustapha43LUX1:48:251:48:395:44 10.49430406LUXEMBOURG
153.2451GRACCO Gaetano42BEL1:48:351:49:005:45 10.46433403
154.2057FILBIG Marco41BEL1:48:291:49:065:45 10.45435403
155.2399DE REUVER Rudi44NLD1:48:521:49:085:45 10.45436399UTRECHT
156.2533FIEVET Jacques49FRA1:48:141:49:175:46 10.43438404
157.277HEYNEN William49BEL1:49:091:49:415:47 10.39440395NANDRIN
158.2404PIERARD Christian47BELKBLKBL1:49:241:49:435:47 10.39441392ARLON
159.1991SPLINGARD Dominique46BELNACAMIS FB1:49:301:49:485:47 10.38443390HAINE-ST-PIERRE
160.865SANTOCONO Jerome45BELACLO1:49:301:49:495:47 10.38444390MORLANWELZ
160.1960SPLINGARD Jean Claude48BELACLO1:49:291:49:495:47 10.38444390HAINE-SAINT-PAUL
162.2239CROCHET Pauly42BELULA1:49:541:50:315:49 10.32452382VANCE
163.2213BODET Michel49BELHRC1:50:031:50:545:51 10.28460377STOCKEM
164.2447CAMPENAIRE Yves42BEL1:49:561:50:555:51 10.28461377SAINT-LÉGER
165.2247DEBREIL Eric43FRA1:50:181:51:025:51 10.27462374LONGWY
166.2435ANZIA Gerard40LUX1:50:241:51:055:51 10.26463372USELDANGE
167.2448BERNE Michel46BEL1:50:551:51:355:53 10.22476361
168.2027SCHUSTER Jos44LUXCAPA ETTELBRUCK1:50:571:51:385:53 10.21478360NIEDERFEULEN
169.2434DIDERRICH Pierre49LUXD'COQUE MARATHONTEAM1:50:571:51:395:53 10.21481359FRISANGE
170.2548MUSTIN Alain46BEL1:51:161:51:535:54 10.19482355MUSSON
171.2212BILLION Eric40BEL1:51:381:52:015:54 10.18484351SAINT-MARD
172.2460KEMPS Jean-Pierre48BELLEEUWERIK1:51:131:52:025:54 10.18485354
173.522VANLOO Marc47BELRONVAU1:51:191:52:145:55 10.16489351WAVRES
174.2565ACS Raymond45BEL1:52:371:52:475:57 10.11494337MEIX-DEVANT-VIRTON
175.2537BERNES Jean-Luc44FRA1:52:371:53:015:57 10.09497335
176.2508BUYTAERT Els42BEL1:52:311:53:155:58 10.07500335HABAY-LA-NEUVE
177.2469SIZAIRE Jerome40BEL1:53:171:53:415:59 10.03510323HABAY-LA-VIEILLE
178.2509DANDOY Dominique46BEL1:53:081:53:516:00 10.01512324HABAY-LA-NEUVE
179.2599MERVILLE Vincent41BEL1:51:401:54:156:01 9.98518334ARLON
180.2003BERNARD Eric45BEL1:53:331:54:256:02 9.96519316LIEGE
181.2001AUDRIT Philippe45BELSERRUNER1:54:101:54:396:03 9.94525308SERAING
182.2397MICHEL Serge42BELHRCHRC1:53:501:54:446:03 9.94526310LÉGLISE
183.2219BOUILLON Eric40BELHRC1:54:481:55:076:04 9.90531300ARLON
184.2466SAC Eric42BEL1:55:151:55:246:05 9.88535294
185.2319MALCORPS Francis44BEL1:54:391:55:346:05 9.86539297NOBRESSART
186.1921WOUTERS Jean-Marc47BEL1:55:091:55:416:06 9.85542291NEUPRE
187.2492SCOUBEAU Daniel47BEL1:55:561:56:286:08 9.79549281
188.2529KOCKEN Ludwig46BELRC NAMUR1:55:281:56:326:08 9.78551284SART BERNARD
DNF: did not finish; DSQ: disqualified; Speed in km/h
30/11/2020 - 08:52 - 224 Entries
ChronoRace - Electronic Timing SPRL
http://www.chronorace.be

Page 4 / 5  
Les Forges de la Foret d'Anlier
Category
VE1
Habay-la-Neuve, 17/06/2006, BEL
Delhalle - 19km - Classement scratch
19km 
PlaceNrNameAgeNATLeagueTeamRealTimeTkmMoy.ScrPtsCity
189.2438WAHL Jean-Michel45BELFC BECKERICH1:55:591:56:376:09 9.78552279OBERPALLEN
190.2527MANSUY Eric42BEL1:56:281:56:586:10 9.75553274
191.2387SEMENIUCK Herbert45BEL1:57:211:57:316:12 9.70557265
192.395DEBATY Yves43BELVICO1:57:231:58:246:14 9.63563261HUY
193.850LENOIR Gerard46BELTORTUES1:57:591:58:276:15 9.62565255GONDREGNIES
194.2228CEULEMANS Frans40BEL1:58:281:59:186:17 9.56575246ARLON
195.249PIRSON Patrice49BELJCCS1:59:112:00:086:20 9.49581237SART-CUSTINNE
196.2360VERNAILLEN Lieven40BELTOVENAARS1:59:482:00:166:20 9.48582232DENDERLEEUW
197.1029RENNESON Pascal46BELHRC1:59:522:00:246:21 9.47584230HABAY LA VIEILLE
198.2449TRISCIUOGLIO Aldo45BEL2:01:152:01:406:25 9.37592214ARLON
199.2588HUBERTY Jean-Paul42LUX2:01:422:02:446:28 9.29602206MEDERNACH
200.2005BODEN Jean45LUXSPIRIDON2:02:182:02:506:28 9.28603200GONDERANGE
201.2490RICHTER Patrick47BELHRC2:02:262:02:576:29 9.27605198
202.1828EVRARD Michel49BELARCH2:04:282:05:246:36 9.09614177WELLIN
203.1831LOMBET Benoit48BELARCH2:04:282:05:246:36 9.09615177MIECRET
204.2524CLEMENT Paul43BEL2:06:112:06:466:41 8.99624158
205.1470PETREMENT Marc42BEL2:07:132:08:076:45 8.90629148MUSSON
206.2384HALBARDIER Philippe42BEL2:07:522:08:286:46 8.87631141
207.2065BREULHEID Rene48BEL2:07:272:08:286:46 8.87632144BAS-OHA
208.1053MICHEL Daniel48BELRIWA2:09:582:10:216:52 8.75635123RIXENSART
209.1769DUMONT Alain46BELRCNAMUR2:09:352:10:346:53 8.73637125JAMBES
210.2514DEULEESCHOUWER Christian46BEL2:11:542:12:116:58 8.62645103
211.2513DEULEESCHOUWER Bertrand47BEL2:12:002:12:176:58 8.62646101
212.2294JAKUBOSKI André48FRAACO.BLENOD2:12:032:12:316:59 8.60649100
213.2551RYELANDT Christian48FRA2:12:272:12:437:00 8.5965196
214.2521BARVAUX Vincent41BEL2:12:382:13:377:02 8.5365393LONGLIER
215.2393DEVILLET Serge44BEL2:13:532:13:597:04 8.5165483
216.2378VELGHE Christian42BEL2:13:102:13:597:04 8.5165588HARINSART
217.2390MASSON Thierry46BEL2:17:002:17:387:15 8.2866654
218.2597PIERRET Thierry42BEL2:19:062:19:587:22 8.1467335SAINTE-MARIE-SUR-SEMOIS
219.252ANTOINE Alain45BELRCNAMUR2:21:182:22:167:30 8.0167817BOUGE
220.2006CHRIST Jean46BEL2:35:462:36:498:16 7.276894LIÈGE
221.258KLEKER Yves44BELDAMPHRC2:36:112:36:578:16 7.266923CHATILLON
222.2204ARNOLD Pascal43BEL2:35:532:36:578:16 7.266932LIÈGE
DNF2269FRANCAUX Marc44BELLOUVAIN-LA-NEUVE
DNF2532WILLEMS Pascal47BELFREUX-LIBRAMONT
DNF: did not finish; DSQ: disqualified; Speed in km/h
30/11/2020 - 08:52 - 224 Entries
ChronoRace - Electronic Timing SPRL
http://www.chronorace.be

Page 5 / 5